Wind_Speed
13 15 15 13 8 7 12 8 7 8 8 9 7 2 4 5 4 2 9 3 13 14 12 11 12 13 15 16 17 14 9 7 8 9 9 9 10 9 9 8 8 8 8 9 9 8 8 8 9
14 15 15 14 11 12 13 14 11 9 8 8 6 6 6 7 5 5 6 2 11 14 12 13 14 15 16 16 14 11 8 8 6 7 8 8 8 8 7 7 8 8 9 10 10 10 10 11 11
14 15 15 12 18 17 10 16 16 14 11 11 9 9 9 8 8 7 9 4 7 13 14 15 16 13 16 15 13 10 10 8 6 5 6 7 7 6 7 7 7 9 10 10 11 11 12 13 13
15 14 15 17 16 20 15 13 17 18 17 16 12 9 10 11 12 11 7 5 7 11 14 16 16 14 15 14 12 10 11 8 5 4 6 5 5 6 6 6 7 8 9 10 11 11 11 11 12
14 16 17 16 22 17 17 16 14 15 16 16 15 13 12 11 10 10 6 5 8 11 14 16 17 16 15 13 13 12 11 6 3 5 4 3 4 4 4 5 6 7 8 8 9 10 10 11 12
17 16 13 21 23 22 15 16 17 17 17 17 17 15 13 12 11 10 8 9 10 13 14 16 19 19 17 15 14 12 9 6 5 5 4 3 3 3 3 3 4 5 6 7 8 8 8 9 10
22 19 19 21 20 22 20 17 19 15 18 18 20 19 17 15 12 12 11 11 12 15 15 15 19 20 18 17 15 13 10 7 7 6 4 3 2 1 2 2 2 5 5 5 6 7 7 8 9
27 25 24 25 21 21 21 19 19 19 18 18 20 21 19 15 14 13 14 13 15 17 17 17 18 19 18 17 15 12 10 9 8 6 3 3 2 2 3 1 3 4 3 4 5 6 7 8 9
32 29 30 28 25 21 19 21 22 24 22 20 21 20 16 14 17 16 15 16 16 19 20 19 18 18 18 16 14 12 11 10 9 6 4 4 3 3 3 2 3 1 1 3 5 7 8 9 10
36 39 36 30 27 27 22 22 21 25 25 22 23 23 17 16 16 18 16 17 17 19 20 19 18 17 17 16 15 13 12 11 9 7 6 5 5 5 5 6 5 3 3 5 7 8 9 10 11
38 44 39 35 29 29 28 25 26 27 30 25 20 19 21 17 17 17 19 18 18 19 21 19 19 18 18 17 16 14 13 12 11 8 7 7 7 7 8 8 7 6 6 8 9 10 12 13 15
36 40 41 40 34 31 30 29 30 30 28 25 23 25 23 21 17 16 19 21 22 23 22 22 20 19 18 17 17 17 16 14 12 10 10 9 9 9 9 10 9 9 9 11 12 14 15 17 18
38 38 41 43 38 36 33 33 30 34 26 27 26 26 26 22 20 19 21 23 24 25 25 25 23 21 19 18 17 17 16 15 13 12 12 11 10 10 11 11 12 12 13 14 15 18 19 20 21
34 26 40 40 43 40 39 37 33 34 33 31 27 28 29 24 21 21 25 27 27 27 26 26 25 23 21 20 20 19 18 16 15 14 13 12 11 11 11 13 15 16 17 18 19 21 23 22 22
36 40 39 34 40 44 42 45 46 32 34 35 32 31 31 27 24 24 23 25 26 28 27 26 25 24 23 22 23 22 20 18 17 15 14 13 12 11 13 15 17 18 19 20 22 24 24 25 25
24 37 41 40 40 41 42 60 46 36 36 36 34 34 33 30 25 24 26 27 28 30 30 28 27 25 24 24 24 22 20 19 19 16 15 14 13 14 15 16 18 19 20 22 24 26 27 25 26
34 34 29 33 37 38 44 55 54 42 38 39 39 36 35 34 29 27 29 29 29 31 30 30 29 27 27 25 22 22 21 22 21 19 17 16 16 16 18 19 20 21 22 24 26 27 25 29 32
28 35 32 30 22 38 44 52 45 50 45 43 39 37 37 37 31 30 31 32 31 32 32 31 31 30 27 24 24 23 23 23 22 20 19 19 20 20 20 21 22 22 20 24 28 32 30 36 36
31 35 39 33 24 29 41 47 49 50 46 45 43 42 39 39 34 32 31 34 34 34 35 35 33 29 27 25 25 24 23 22 22 21 21 21 21 21 22 23 23 21 23 24 33 32 31 37 34
34 28 51 43 43 38 40 43 51 45 58 50 44 44 42 42 39 34 33 36 37 36 36 35 32 30 28 27 26 25 23 23 22 21 21 21 20 20 19 18 21 24 32 36 33 33 28 31 30
39 37 33 31 29 31 36 48 41 52 57 57 49 43 43 43 41 38 36 37 39 37 37 36 33 32 30 28 26 26 25 24 22 20 20 21 21 20 21 21 22 28 32 33 30 29 31 29 28
40 38 29 27 24 42 26 20 31 38 57 61 57 51 49 45 45 40 38 37 38 38 37 35 34 32 30 29 28 26 24 20 20 23 18 15 17 20 21 26 29 33 31 30 30 27 22 14 12
38 35 33 23 27 27 29 20 31 31 40 60 64 66 56 47 46 40 42 39 37 37 36 35 33 31 31 29 29 25 21 21 25 20 21 20 19 25 28 24 32 28 29 25 15 11 11 13 14
22 22 32 32 32 12 33 28 26 32 44 36 68 54 56 54 44 39 38 39 38 37 34 33 31 27 30 31 21 19 23 21 19 23 27 32 25 26 23 31 25 21 14 12 11 12 14 16 17
20 21 6 9 9 5 8 27 37 30 32 40 42 60 53 50 54 40 40 39 37 34 32 29 28 27 21 20 25 26 20 33 20 31 27 23 22 23 28 20 16 9 8 11 13 15 16 17 20
21 23 14 7 3 1 17 12 16 33 37 43 40 53 69 57 52 58 42 36 35 31 28 29 27 23 24 26 37 31 27 36 24 23 20 29 19 17 12 6 6 8 10 13 15 16 18 21 23
17 25 36 11 10 5 7 10 19 25 25 31 41 57 51 57 54 51 49 45 39 36 35 36 36 34 34 36 30 29 27 27 15 20 20 20 14 7 5 4 6 8 12 14 16 18 21 24 26
18 23 10 23 5 4 4 7 5 13 30 36 43 45 55 47 52 50 44 41 40 37 34 38 36 33 32 18 18 20 23 19 20 21 18 11 2 1 3 5 7 10 13 16 19 21 24 26 27
15 14 9 9 5 3 2 2 13 19 26 36 44 47 54 49 44 42 43 45 40 42 37 35 43 34 30 23 27 26 19 15 19 16 11 3 2 2 3 7 9 13 16 19 21 23 25 27 28
16 13 22 6 5 1 4 3 20 16 21 32 36 48 49 51 51 49 43 44 43 41 39 30 32 28 25 26 23 18 13 13 12 7 4 5 6 3 6 9 12 16 19 21 23 25 26 28 32
Wind_Direction
212 206 203 211 214 220 202 193 198 204 190 198 203 264 308 309 312 333 342 210 195 187 187 181 168 161 156 155 152 154 151 129 89 63 68 79 79 76 74 68 66 66 67 66 63 54 49 45 43
212 213 206 216 220 223 208 198 190 184 203 210 232 266 282 296 301 318 350 247 203 194 190 182 167 154 157 161 158 157 153 139 100 67 78 83 79 68 58 59 64 61 58 56 56 56 56 53 51
212 218 216 216 227 226 229 205 202 204 215 227 236 259 267 279 291 292 313 315 206 199 190 184 171 169 168 169 164 161 153 141 116 85 95 94 80 64 67 66 64 65 66 68 69 66 62 58 53
228 220 225 223 227 228 227 216 208 211 220 221 233 252 270 278 279 279 281 271 200 197 190 184 178 171 174 178 179 167 158 145 119 103 111 92 71 76 73 71 71 75 76 71 67 63 57 50 46
232 232 229 235 234 230 228 227 217 219 219 226 235 242 267 273 283 272 231 225 198 199 192 186 180 174 172 172 170 164 162 161 141 134 119 95 88 86 77 72 72 72 70 68 60 54 48 44 40
251 237 234 237 238 236 238 235 232 225 228 229 236 249 253 265 274 265 226 202 198 194 195 191 185 179 172 169 172 176 182 182 172 158 151 124 111 93 77 55 54 65 69 62 53 44 38 36 32
248 247 241 242 248 240 238 239 239 234 234 239 241 244 245 257 256 260 232 203 199 197 193 189 193 190 187 189 191 192 193 185 176 172 172 148 124 82 24 359 52 91 81 54 36 25 17 17 15
246 249 247 245 248 247 243 238 237 236 239 238 234 240 248 247 242 245 244 217 197 199 198 189 192 194 194 195 199 198 195 187 184 184 189 182 200 263 295 267 127 105 60 30 13 1 360 1 4
240 243 243 243 246 245 243 244 240 239 240 238 236 241 251 246 236 230 237 229 212 199 200 191 190 195 195 199 198 197 195 192 190 193 201 202 226 260 274 212 168 148 349 346 349 350 352 347 350
233 240 240 238 245 244 241 240 236 242 239 241 241 237 241 242 245 237 233 238 221 207 202 196 191 192 193 195 197 195 194 196 199 206 214 220 244 259 242 208 208 235 295 315 328 335 338 332 331
234 237 242 239 241 245 242 241 239 238 244 244 248 239 246 249 243 241 226 225 223 208 202 200 194 193 192 194 195 194 196 200 207 219 223 232 249 254 238 227 231 255 284 302 313 320 318 318 323
243 242 241 242 239 245 244 241 243 239 242 249 244 254 243 241 245 240 227 220 216 205 199 198 198 195 197 197 199 197 199 205 209 222 228 236 252 254 242 239 247 263 279 290 301 303 306 309 314
244 245 243 243 238 241 245 242 243 243 233 238 240 244 236 237 243 227 218 217 213 208 201 197 197 198 198 202 205 206 209 212 218 225 231 241 252 252 247 245 251 260 271 283 290 296 299 304 308
239 250 250 246 241 240 245 243 242 237 235 237 238 237 239 240 246 232 219 216 211 205 204 201 197 199 199 202 205 210 217 220 222 230 234 244 254 259 259 257 260 266 273 280 287 292 295 298 303
241 246 244 243 241 239 245 247 238 237 235 238 232 233 239 242 243 236 225 221 216 206 204 204 202 200 201 204 210 213 217 222 227 233 237 243 253 259 263 263 267 272 279 285 287 289 295 300 305
248 245 252 249 244 242 238 247 240 233 233 234 236 234 238 238 238 232 223 217 215 207 204 202 206 203 205 210 215 218 221 225 230 235 240 248 257 263 266 269 273 277 281 284 289 293 298 305 312
236 250 255 256 248 247 241 247 244 237 235 228 230 234 236 235 230 225 223 216 213 209 207 207 205 207 210 215 220 222 224 227 231 234 239 246 255 261 266 271 275 281 287 293 294 295 303 312 314
239 248 255 261 258 248 247 252 244 242 237 236 224 229 234 232 230 226 223 213 210 209 208 208 208 209 213 215 220 223 226 231 235 240 243 248 252 258 265 272 278 286 298 313 314 304 301 317 313
249 245 246 254 253 253 245 250 250 240 234 229 222 224 229 230 225 224 222 212 210 207 208 211 212 215 217 220 224 228 233 236 241 245 249 253 259 266 273 279 286 284 303 319 322 301 285 301 299
241 256 249 256 256 263 255 247 244 238 237 227 226 220 223 224 223 219 221 214 213 211 209 212 215 218 220 222 226 229 235 239 244 249 254 261 269 275 285 295 306 317 302 309 308 301 287 294 300
244 262 269 267 258 264 260 269 251 239 235 228 227 225 223 224 220 219 219 217 214 213 214 216 216 220 224 227 232 237 241 244 250 259 266 268 269 281 296 299 300 315 299 289 293 288 296 300 302
251 247 273 270 254 251 262 270 263 250 226 225 223 224 220 220 221 222 221 219 217 217 219 220 222 225 227 232 236 239 247 251 256 264 263 277 290 296 300 287 285 301 290 295 300 299 301 311 320
256 267 261 274 259 245 241 232 247 253 221 229 224 225 221 219 220 221 219 220 219 218 220 222 225 228 231 232 238 245 247 235 256 259 270 263 288 290 277 271 300 295 296 299 305 313 316 315 314
263 267 261 270 250 234 230 221 250 235 249 241 226 225 222 222 215 215 220 220 218 218 221 224 227 229 224 238 235 236 252 253 260 261 276 256 259 276 276 293 298 293 298 308 312 314 318 318 316
254 259 202 232 208 229 281 209 237 253 262 247 250 229 217 219 213 214 216 215 217 220 221 227 231 232 229 232 236 243 243 251 256 259 257 255 288 284 292 286 286 310 310 313 315 318 317 317 317
260 235 226 239 232 266 270 224 233 254 249 254 236 226 221 219 214 218 215 204 207 218 222 225 232 239 241 241 257 243 242 253 245 262 246 286 271 277 279 289 313 312 319 316 314 315 317 318 318
284 254 238 248 233 234 235 266 289 259 239 219 215 214 209 211 218 216 219 214 223 220 226 229 237 238 241 238 239 254 247 269 247 269 282 262 259 265 300 330 298 316 312 313 314 316 317 317 317
275 283 203 217 181 236 245 299 295 232 203 210 209 212 208 206 208 212 213 218 219 218 221 232 235 230 223 234 230 249 251 246 261 267 249 247 230 140 261 289 311 317 315 316 317 319 317 317 318
290 311 275 188 224 142 237 220 325 289 191 198 209 209 206 207 199 211 211 228 212 219 219 221 229 218 223 237 239 230 260 241 262 239 248 192 121 199 280 300 321 321 320 319 319 317 318 319 320
283 329 321 248 193 161 226 338 322 286 200 192 206 206 207 212 209 209 207 220 222 219 214 229 236 215 234 221 234 252 249 251 236 218 148 159 197 243 290 315 321 320 320 320 319 319 319 321 323
Height
3158 3160 3161 3164 3169 3165 3163 3166 3167 3168 3170 3171 3171 3172 3174 3173 3174 3177 3174 3173 3175 3176 3178 3179 3181 3182 3183 3185 3187 3188 3190 3192 3192 3193 3193 3193 3193 3193 3193 3192 3192 3191 3191 3191 3190 3190 3189 3189 3188
3157 3159 3160 3161 3164 3162 3161 3163 3165 3167 3169 3170 3171 3171 3172 3172 3172 3173 3173 3173 3175 3176 3178 3179 3181 3182 3184 3185 3187 3189 3191 3192 3193 3193 3193 3194 3194 3194 3194 3193 3193 3192 3192 3192 3191 3191 3190 3189 3189
3156 3157 3159 3159 3158 3159 3161 3161 3163 3165 3167 3169 3170 3171 3171 3171 3171 3172 3173 3173 3174 3176 3177 3180 3181 3183 3184 3186 3188 3190 3191 3192 3193 3193 3194 3194 3194 3194 3194 3193 3193 3193 3192 3192 3192 3192 3191 3190 3190
3155 3156 3158 3155 3155 3157 3159 3161 3161 3162 3165 3166 3168 3169 3170 3170 3170 3170 3171 3172 3173 3175 3177 3179 3181 3183 3185 3186 3188 3190 3191 3192 3192 3193 3193 3194 3194 3194 3194 3194 3194 3193 3193 3193 3193 3192 3192 3191 3190
3152 3153 3153 3153 3154 3155 3157 3159 3160 3161 3162 3164 3166 3167 3167 3168 3169 3169 3169 3171 3172 3175 3176 3178 3181 3183 3184 3186 3188 3189 3190 3191 3192 3192 3193 3193 3193 3194 3194 3194 3194 3194 3194 3193 3193 3193 3192 3191 3191
3150 3150 3151 3151 3151 3154 3156 3157 3158 3158 3160 3161 3163 3165 3166 3166 3167 3168 3168 3169 3171 3173 3175 3177 3179 3182 3183 3185 3187 3188 3189 3191 3192 3192 3193 3193 3194 3194 3194 3194 3194 3194 3194 3194 3193 3193 3192 3192 3191
3146 3147 3147 3148 3149 3151 3154 3155 3155 3157 3158 3159 3160 3161 3163 3164 3165 3166 3167 3167 3169 3171 3174 3175 3178 3180 3182 3184 3186 3187 3188 3189 3191 3191 3192 3192 3193 3194 3194 3194 3194 3194 3194 3193 3193 3192 3192 3191 3190
3142 3143 3143 3145 3147 3149 3153 3153 3153 3154 3155 3156 3157 3157 3160 3161 3162 3163 3165 3166 3167 3169 3172 3174 3176 3178 3181 3183 3185 3186 3188 3188 3190 3190 3191 3192 3193 3193 3193 3193 3193 3194 3193 3193 3192 3192 3191 3190 3189
3136 3136 3136 3140 3144 3147 3149 3150 3150 3151 3152 3153 3154 3155 3157 3158 3159 3160 3162 3164 3165 3166 3170 3171 3174 3176 3178 3181 3183 3185 3187 3188 3189 3190 3190 3191 3192 3192 3192 3193 3193 3193 3193 3192 3192 3191 3190 3189 3188
3128 3127 3130 3137 3141 3143 3145 3144 3146 3148 3149 3150 3150 3152 3154 3155 3156 3157 3159 3162 3163 3165 3167 3169 3171 3174 3177 3179 3181 3183 3185 3186 3187 3188 3189 3190 3190 3190 3190 3191 3191 3191 3191 3191 3190 3190 3189 3188 3186
3121 3118 3127 3132 3136 3137 3139 3141 3141 3142 3143 3146 3149 3151 3152 3152 3153 3154 3156 3159 3161 3162 3164 3167 3169 3172 3174 3177 3178 3180 3182 3184 3186 3186 3187 3188 3188 3189 3189 3189 3190 3190 3190 3189 3189 3188 3187 3186 3185
3114 3115 3120 3126 3130 3131 3132 3134 3135 3136 3141 3145 3146 3148 3148 3149 3150 3151 3154 3156 3158 3159 3162 3164 3167 3169 3172 3174 3176 3178 3179 3181 3183 3184 3185 3186 3186 3187 3187 3188 3188 3188 3188 3187 3186 3185 3184 3182 3181
3106 3108 3113 3118 3124 3125 3127 3127 3130 3131 3136 3138 3141 3142 3144 3145 3146 3147 3149 3151 3154 3157 3158 3160 3164 3166 3169 3171 3174 3176 3177 3178 3180 3181 3183 3183 3184 3184 3184 3185 3185 3186 3185 3185 3184 3182 3180 3179 3177
3102 3103 3106 3110 3115 3118 3119 3121 3121 3125 3131 3132 3134 3138 3140 3142 3143 3143 3144 3146 3149 3153 3156 3157 3160 3163 3165 3168 3170 3172 3174 3176 3177 3179 3180 3181 3182 3182 3182 3182 3182 3182 3182 3181 3180 3178 3176 3175 3173
3094 3095 3099 3101 3108 3108 3113 3110 3107 3121 3124 3127 3129 3132 3135 3137 3139 3140 3142 3144 3147 3149 3152 3155 3157 3159 3162 3164 3165 3168 3170 3172 3174 3175 3176 3177 3178 3178 3178 3178 3178 3178 3178 3177 3175 3173 3171 3170 3169
3090 3089 3088 3093 3100 3101 3109 3088 3105 3113 3115 3120 3124 3127 3130 3132 3135 3136 3138 3140 3143 3144 3146 3150 3153 3156 3159 3160 3162 3165 3167 3169 3171 3172 3173 3174 3175 3175 3175 3174 3174 3174 3173 3172 3171 3168 3166 3165 3163
3084 3077 3082 3087 3093 3096 3096 3087 3096 3105 3109 3111 3116 3120 3124 3127 3129 3131 3133 3136 3138 3141 3143 3145 3148 3152 3154 3156 3159 3161 3163 3164 3166 3168 3169 3169 3170 3170 3169 3169 3169 3169 3168 3168 3166 3164 3162 3158 3156
3076 3074 3078 3080 3086 3086 3084 3079 3088 3097 3102 3105 3109 3113 3116 3120 3126 3127 3128 3131 3133 3136 3139 3141 3143 3146 3149 3153 3155 3157 3158 3160 3162 3163 3164 3165 3165 3165 3164 3164 3164 3164 3164 3162 3161 3159 3156 3154 3150
3072 3069 3069 3073 3076 3076 3077 3077 3080 3088 3094 3096 3099 3104 3109 3116 3119 3121 3123 3126 3129 3131 3133 3135 3139 3143 3146 3148 3151 3153 3155 3156 3158 3159 3160 3160 3161 3161 3161 3160 3159 3158 3157 3156 3155 3154 3151 3148 3144
3065 3063 3060 3067 3072 3072 3071 3063 3068 3073 3077 3087 3093 3095 3101 3108 3112 3115 3118 3121 3124 3126 3128 3131 3136 3139 3142 3145 3147 3148 3150 3151 3153 3154 3154 3155 3156 3156 3155 3155 3154 3152 3151 3148 3147 3146 3144 3142 3139
3060 3057 3059 3063 3068 3064 3063 3055 3059 3064 3068 3078 3082 3088 3093 3099 3104 3108 3111 3115 3118 3121 3124 3128 3132 3135 3138 3141 3143 3144 3145 3147 3148 3149 3149 3150 3150 3150 3150 3149 3149 3147 3145 3142 3140 3138 3137 3135 3133
3051 3055 3057 3057 3059 3054 3060 3045 3048 3051 3053 3062 3070 3077 3082 3088 3095 3100 3106 3110 3113 3117 3119 3124 3128 3131 3133 3136 3138 3139 3141 3142 3144 3144 3144 3144 3145 3145 3144 3144 3142 3141 3138 3135 3133 3131 3131 3129 3128
3045 3051 3053 3054 3052 3052 3050 3049 3033 3045 3044 3047 3057 3065 3073 3079 3087 3093 3099 3104 3108 3111 3114 3118 3122 3125 3128 3131 3132 3134 3136 3137 3138 3139 3139 3139 3139 3138 3137 3136 3135 3132 3131 3129 3128 3127 3126 3125 3124
3044 3046 3048 3049 3047 3039 3036 3038 3022 3030 3034 3041 3049 3055 3062 3071 3079 3085 3091 3097 3102 3105 3109 3113 3116 3120 3123 3125 3127 3130 3131 3133 3132 3133 3133 3131 3130 3132 3130 3130 3129 3127 3125 3125 3125 3124 3123 3121 3119
3041 3043 3039 3040 3031 3027 3026 3025 3012 3018 3026 3031 3036 3047 3054 3064 3072 3077 3084 3089 3096 3100 3104 3109 3112 3115 3118 3120 3122 3123 3123 3126 3124 3125 3126 3125 3126 3125 3125 3123 3124 3123 3122 3122 3122 3120 3118 3116 3115
3034 3036 3033 3029 3023 3017 3024 3009 2998 3010 3015 3021 3024 3030 3044 3056 3064 3070 3075 3082 3089 3094 3099 3103 3107 3110 3113 3115 3115 3116 3116 3119 3118 3118 3117 3119 3119 3118 3119 3120 3121 3120 3119 3118 3117 3116 3114 3111 3109
3027 3024 3025 3024 3021 3025 3013 3002 2996 2994 3002 3006 3012 3020 3033 3046 3054 3062 3070 3075 3083 3088 3094 3098 3100 3102 3105 3107 3109 3109 3110 3113 3112 3113 3113 3113 3112 3114 3116 3118 3118 3117 3116 3115 3113 3110 3108 3105 3103
3023 3023 3017 3019 3019 3017 3002 2999 2994 2997 3001 3001 3007 3016 3028 3038 3047 3055 3062 3070 3075 3081 3087 3091 3090 3096 3096 3099 3103 3105 3107 3107 3106 3108 3109 3107 3109 3113 3116 3116 3115 3114 3112 3111 3108 3105 3103 3100 3097
3021 3015 3010 3011 3011 3009 3003 3001 2998 2993 2993 2997 3004 3013 3022 3031 3040 3050 3057 3064 3068 3074 3079 3083 3087 3085 3089 3094 3097 3097 3099 3100 3102 3103 3105 3104 3106 3109 3112 3113 3111 3110 3108 3107 3104 3100 3098 3094 3091
3015 3012 3008 3004 3007 3001 2999 2996 2994 2990 2990 2994 3001 3010 3019 3028 3036 3043 3050 3057 3064 3065 3070 3078 3080 3082 3084 3087 3089 3091 3093 3097 3098 3098 3101 3103 3105 3107 3108 3108 3107 3106 3104 3102 3100 3096 3091 3087 3084